Погода в Утене

Поиск расширенной информации на нашем сайте:

Полезная информация:

Новости сайта



02.01.2020
Опубликован Долгосрочный прогноз погоды по городам России и ближнего зарубежья на январь 2020 года.
Карты: Прогноз на январь и февраль 2020 года, Сравнение прогнозируемой аномалии приземной температуры воздуха на январь 2020 года по разным моделям.




Погода в Утене - сегодня

Время (UTC), дата Ветер
(°,м/с) 
Видим.   Явления Облачность Т
(°С)
Тd
(°С)
f(%) Тe
(°С)
Pmin
(гПа)
dP
(гПа)
Po
(мм)
O2
(г/м3)
Тmin Tmax R s Состояние
почвы
09 16.01.21 050 (СВ) 1-2{02}  2700 м  слаб. снег  10/0 средняя 
[Ac As]
-17.5 -19.9 82 -18  1015.5  0.6  751  325           
12 16.01.21 060 (СВ) 2-4{05}  19000 м  {снег}  3/3 1000 м 
[Sc]
-16.3 -19.9 74 -19  1016.1  0.6  751  324      0.1   
15 16.01.21 тихо () -1{05}  20000 м    3/3 600 м 
[Sc]
-18.7 -20.9 83 -19  1017.4  1.1  752  327           
18 16.01.21 160 (Ю) 2-4{04}  19000 м    8/0 верхняя 
[Cs]
-18.5 -21.4 78 -21  1018.9  1.6  753  327    -15.9  0.1   
21 16.01.21 320 (СЗ) 1-2{03}  19000 м    3/3 600 м 
[Sc]
-20 -22.2 83 -20  1019.8  0.8  754  329           
00 17.01.21 280 (З) 1-1{03}  14000 м    ясно 
-21.6 -23.7 83 -22  1019.8  -0.1  754  332         
03 17.01.21 290 (З) 1-1{03}  15000 м    ясно 
-23 -25.3 81 -23  1020.4  0.5  754  334           
06 17.01.21 320 (СЗ) 1-1{02}  16000 м    8/0 средняя 
[Ac und]
-23.5 -25.7 82 -24  1021.1  0.6  755  335  -23.9      неравномерный
сухой снег
100% 
09 17.01.21 290 (З) 1-2{03}  13000 м    5/0 верхняя 
[Ci sp]
-20.9 -23.7 78 -21  1022  1.1  756  331           
12 17.01.21 310 (СЗ) 2-3{04}  11000 м  в посл. час снег  8/6 540 м верхняя 
[Sc|Ci sp]
-17.6 -20.9 75 -20  1022  0.2  756  327      0.0   
15 17.01.21 280 (З) 1-2{03}  4900 м  слаб. снег  10/10 570 м 
[Ns]
-17.9 -20 84 -18  1022.6  0.5  756  328           
18 17.01.21 тихо () -1{02}  5000 м  слаб. снег  10/0 средняя 
[Ac As]
-19.7 -21.6 85 -20  1023  0.3  756  330    -17  0.0   
21 17.01.21 110 (В) 1-1{01}  2600 м  в посл. час снег  9/9 840 м 
[Sc]
-20.5 -22.6 83 -21  1022.9  -0.1  756  331           
00 18.01.21 тихо () -0{01}  1700 м  слаб. снег  10/10 400 м 
[Frnb|Ns]
-18.3 -20.5 83 -18  1022.2  -0.5  756  328      0.0   
03 18.01.21 150 (ЮВ) 1-2{02}  2700 м  слаб. снег  10/10 400 м 
[Frnb|Ns]
-16.3 -18.5 83 -16  1022.1  756  325           
06 18.01.21 160 (Ю) 1-1{03}  4700 м  слаб. снег  10/0 средняя 
[Ac As]
-14.8 -16.9 84 -15  1021.9  -0.2  756  323  -20.9    0.0  неравномерный
сухой снег
100% 
09 18.01.21 160 (Ю) 1-2{02}  7000 м  слаб. снег  10/0 средняя 
[Ac As]
-13.7 -16.1 82 -14  1021.9  0.1  756  322           
12 18.01.21 210 (ЮЗ) 1-2{03}  7000 м  слаб. снег  10/0 средняя 
[Ac As]
-12 -14.8 80 -12  1021.1  -0.7  755  320      0.0   
15 18.01.21 200 (Ю) 1-2{03}  9000 м  слаб. снег  10/0 средняя 
[Ac As]
-11.9 -14.7 80 -12  1020.8  -0.3  755  319           
18 18.01.21 170 (Ю) 2-3{04}  7000 м  в посл. час снег  10/0 средняя 
[Ac As]
-12 -14.5 82 -14  1020.5  -0.3  755  319    -11.8  0.0   
21 18.01.21 130 (ЮВ) 1-2{03}  6000 м  в посл. час снег  9/5 600 м средняя 
[Sc|Ac und]
-12.4 -14.5 84 -12  1020.2  -0.3  755  320           
00 19.01.21 130 (ЮВ) 1-2{03}  7000 м  в посл. час снег  9/5 600 м средняя, верхняя 
[Sc|Ac und|Ci sp]
-12 -14.2 84 -12  1019.4  -0.8  754  319      0.0   
03 19.01.21 130 (ЮВ) 2-3{03}  10 км    9/5 600 м средняя, верхняя 
[Sc|Ac und|Ci sp]
-11.5 -13.7 84 -13  1018.5  -0.9  753  318           
06 19.01.21 140 (ЮВ) 2-4{04}  11000 м    9/9 2000 м 
[Sc]
-11.3 -13.5 84 -13  1018.6  0.1  753  318  -12.4    0.0  неравномерный
сухой снег
100% 
09 19.01.21 140 (ЮВ) 2-3{04}  8000 м  дым  9/4 1000 м средняя 
[Sc|Ac und]
-10.7 -13.5 80 -13  1018.5  753  317           
Время (UTC), дата Ветер
(°,м/с) 
Видим.   Явления Облачность Т
(°С)
Тd
(°С)
f(%) Тe
(°С)
Pmin
(гПа)
dP
(гПа)
Po
(мм)
O2
(г/м3)
Тmin Tmax R s Состояние
почвы

Для получения пояснительной информации подведите курсор к названию столбца.

ПОГОДА в Утене - архив

Всё, что Вы хотите узнать о погоде в Утене - удобно и подробно!

Выберите нужную дату (начиная с 1 января 2019* года) и нажмите кнопку "Найти".
Будут отображены архивные сводки погоды по пункту Утена, начиная с указанной даты.


Отображать данные в формате CSV (для использования в таблицах Excel)


Внимание! Наш архив погоды предназначен исключительно для личного некоммерческого использования в познавательных целях. Если Вам необходимы официальные справки о состоянии погоды (для производственных, юридических, коммерческих и т.п. целей), обращайтесь в органы Росгидромета.

*Примечание: данная дата относится к архиву по метеостанциям СССР (Россия, СНГ, Балтия).
Архив по метеостанциям Зарубежной Европы и Азии (кроме Китая) хранится 10 дней, по другим регионам земного шара (Китай, Африка, Америка, Австралия, Океания) - 1 день.

Утена - район местоположения метеостанции


Название, широта, долгота, высота метеостанции:
Утена 55.5°ш. 25.6°д. 106 м над ур. моря [Литва]

Дополнительная информация

В oтличие oт бoльшинства пoгoдных сайтoв мы публикуем пoдрoбную метеoинфoрмацию в детальнoм прoфессиoнальнoм фoрмате.

Характеристики температуры и влажнoсти вoздуха измеряются на высoте 2 м в тени вдали oт зданий и деревьев.
Скoрoсть ветра измеряется на высoте 10 м (на урoвне рoста челoвека скoрoсть ветра ниже в 1.5-2 раза). Если метеoстанция нахoдится в гoрoде или в лесу, тo скoрoсть ветра занижена на 2-4 м/с пo сравнению с oткрытым местoм. Скoрoсть ветра над акватoриями крупных рек и oзёр, а также на вершинах хoлмoв на 2-5 м/с выше, чем в oбычных услoвиях.
Атмoсфернoе давление в разных тoчках местнoсти мoжет значительнo oтличаться oт давления на метеoстанции, в зависимoсти oт услoвий рельефа (при пoдъёме на 10 м давление пoнижается примернo на 1 мм рт.ст.).